Powrót do katalogu

STARLINK-34388

AktywnyŁącznośćVLEO
NORAD 64294·PAYLOAD·🇺🇸 United States

Wystrzelony Jun 8, 2025 z Vandenberg Space Force Base

Loading…

Następne Przeloty (najbliższe 24 godziny)

TLE

ŚwieżeSource: CelesTrak SupGP

Epoka: Sep 15, 2026, 02:28 UTC

1 64294C 25123D   26258.10326389 -.00046627  00000+0 -16223-2 0  2583
2 64294  69.9999  75.1189 0003261 272.3332 135.3223 15.29596318    12

Śledź STARLINK-34388 w czasie rzeczywistym z AllMySat

Download on the App Store